Location: Bad Salzschlirf
(50.3750°N, 9.3000°E)
Time: 05:44:26
(UTC+01:00)

ISS - Pass Details

Date: 24 February 2020
Orbit: 415 x 423 km, 51.6° (Epoch: 27 February)

Event Time Altitude Azimuth Distance (km) Brightness Sun altitude
Exits shadow 05:09:44 - 168° (SSE) 1,622 -0.8 -21.2°
Reaches altitude 10° 05:10:26 10° 157° (SSE) 1,496 -0.8 -21.0°
Maximum altitude 05:11:39 12° 136° (SE) 1,406 -0.7 -20.9°
Drops below altitude 10° 05:12:52 10° 115° (ESE) 1,501 -0.2 -20.7°
Sets 05:16:08 0° 81° (E) 2,373 1.7 -20.1°
